Tracking 18957 objects as of 22-Jan-2018
HD Live streaming from Space Station
objects crossing your sky now

PALAPA B4

Track PALAPA B4 now!
PALAPA B4 is classified as:


NORAD ID: 21964
Int'l Code: 1992-027A
Perigee: 35,857.5 km
Apogee: 35,919.9 km
Inclination: 10.1 °
Period: 1,441.0 minutes
Semi major axis: 42259 km
RCS: 12.5892 m2 (large)
Launch date: May 14, 1992
Source: Indonesia (INDO)
Launch site: AIR FORCE EASTERN TEST RANGE (AFETR)

Palapa B-4 was an Indonesian communications spacecraft launched by a Delta rocket.
aabbcc
Your satellite tracking list
Your tracking list is empty




NASA's NSSDC Master Catalog

Two Line Element Set (TLE):
1 21964U 92027A   18021.56361715 -.00000279 +00000-0 +00000-0 0  9997
2 21964 010.1306 038.5796 0007383 272.2622 116.7240 00.99933913016528
Source of the keplerian elements: AFSPC